PDT,Max TemperatureF,Mean TemperatureF,Min TemperatureF,Max Dew PointF,MeanDew PointF,Min DewpointF,Max Humidity, Mean Humidity, Min Humidity, Max Sea Level PressureIn, Mean Sea Level PressureIn, Min Sea Level PressureIn, Max VisibilityMiles, Mean VisibilityMiles, Min VisibilityMiles, Max Wind SpeedMPH, Mean Wind SpeedMPH, Max Gust SpeedMPH,PrecipitationIn, CloudCover, Events, WindDirDegrees
2014-3-1,62,58,54,54,52,50,100,86,72,29.99,29.84,29.75,10,7,1,21,7,26,0.71,7,Rain-Thunderstorm,129
2014-3-2,63,59,54,54,52,49,93,79,65,30.19,30.12,30.01,10,9,2,10,4,13,T,6,,72
2014-3-3,67,59,50,54,52,49,96,77,58,30.19,30.11,30.06,10,10,7,14,4,16,0.00,2,,269
2014-3-4,69,59,49,57,53,48,96,82,68,30.08,30.04,29.98,10,9,7,14,4,23,0.00,3,,175
2014-3-5,67,62,56,57,55,54,93,83,73,30.13,30.07,30.02,10,6,2,15,3,,0.00,5,,242
2014-3-6,69,62,54,59,55,52,100,83,66,30.10,30.03,29.96,10,8,4,16,6,22,0.00,0,,135
2014-3-7,72,61,50,53,48,39,93,63,33,30.04,29.99,29.94,10,10,9,22,6,25,0.00,0,,307
2014-3-8,86,68,49,50,37,25,83,47,11,30.14,30.09,30.00,10,10,10,30,10,36,0.00,0,,65
2014-3-9,85,69,53,42,32,20,61,36,10,30.18,30.14,30.10,10,10,10,21,8,20,0.00,0,,93
2014-3-10,73,61,49,55,45,37,86,60,33,30.11,30.05,30.00,10,10,8,13,3,,0.00,0,,217
2014-3-11,79,64,48,56,46,20,93,54,15,30.02,29.98,29.94,10,10,8,20,5,26,0.00,0,,161
2014-3-12,80,68,55,54,32,12,86,49,12,30.04,29.99,29.94,10,10,9,35,15,44,0.00,1,,67
2014-3-13,68,60,51,54,51,47,89,79,49,30.04,29.98,29.93,10,9,7,13,4,17,0.00,2,,12
2014-3-14,69,57,45,53,49,42,93,74,55,30.13,30.09,30.04,10,9,8,14,4,16,0.00,0,,226
2014-3-15,75,61,46,56,49,43,93,69,44,30.24,30.19,30.13,10,10,8,12,5,17,0.00,0,,244
2014-3-16,83,67,50,49,44,32,77,47,16,30.24,30.19,30.10,10,10,10,12,3,17,0.00,0,,242
2014-3-17,72,60,48,52,48,42,86,65,44,30.09,29.93,29.81,10,10,8,23,7,26,0.00,0,,258
2014-3-18,77,63,48,54,46,20,89,50,11,29.95,29.87,29.80,10,10,8,23,5,29,0.00,0,,38
2014-3-19,69,57,44,56,49,42,86,62,37,30.07,30.03,29.96,10,10,9,16,4,21,0.00,0,,240
2014-3-20,67,58,48,53,49,42,89,76,63,30.09,30.02,29.96,10,10,5,15,5,18,0.00,0,,200
2014-3-21,65,60,55,52,49,48,83,70,56,30.05,30.01,29.96,10,10,5,15,5,18,0.00,5,,231
2014-3-22,65,59,53,52,49,48,86,73,60,30.13,30.07,30.00,10,10,9,14,4,23,0.00,6,,252
2014-3-23,65,56,47,52,50,44,86,75,63,30.17,30.11,30.04,10,9,7,14,4,85,0.00,4,,238
2014-3-24,67,60,53,54,52,48,89,74,58,30.14,30.09,30.00,10,9,8,14,4,18,0.00,7,,254
2014-3-25,62,59,56,54,52,50,86,77,67,30.05,29.97,29.90,10,9,7,14,4,17,T,7,,227
2014-3-26,66,61,55,54,51,44,86,66,45,29.99,29.94,29.88,10,10,4,31,17,38,T,3,Rain,261
2014-3-27,68,56,44,50,46,41,93,67,40,30.11,30.05,29.99,10,10,9,21,7,25,0.00,0,,266
2014-3-28,67,57,47,51,48,43,89,73,56,30.20,30.15,30.10,10,10,9,14,5,16,0.00,0,,212
2014-3-29,72,60,47,54,50,43,86,67,47,30.16,30.06,29.98,10,10,9,15,5,17,0.00,2,,255
2014-3-30,69,60,51,54,48,41,83,61,39,30.09,30.03,29.98,10,10,10,22,9,26,0.00,1,,269
2014-3-31,64,56,47,52,47,39,86,65,43,30.06,30.02,29.96,10,9,2,22,8,28,0.10,3,Rain,245